RH
75 75 75 76 75 75 76 76 76 76 77 77 79 80 82 84 84 71 29 18 28 75 72 59 57 57 60 64 58 49 43 46 41 44 39 44 49 45 43 50 46 49 52 50 61
76 75 76 76 76 76 76 77 77 77 77 77 78 80 81 84 71 42 31 52 60 86 58 60 58 58 60 62 61 50 53 43 33 33 29 42 44 47 50 48 48 56 52 57 62
76 76 77 77 76 77 77 77 77 77 78 78 79 80 80 76 38 9 52 53 72 74 46 48 52 55 59 65 66 60 51 43 30 30 34 40 43 41 48 51 44 59 63 62 62
77 78 79 78 78 77 77 78 78 79 79 79 79 79 79 77 10 15 78 61 80 48 52 53 55 56 57 70 60 61 50 43 35 32 39 42 39 47 45 38 34 47 53 60 62
78 80 80 79 79 79 79 80 83 81 80 79 78 76 72 40 12 32 75 59 63 49 49 52 58 54 57 57 56 64 46 36 34 30 27 38 40 40 44 35 37 47 54 58 58
81 83 84 83 82 81 81 82 83 81 80 79 76 73 63 12 6 13 39 42 52 46 43 44 51 48 44 40 45 33 40 31 19 21 23 30 31 40 37 36 48 52 54 54 56
81 83 83 83 81 81 82 82 82 80 80 80 76 70 65 10 12 27 39 42 48 37 40 34 39 39 31 22 22 17 17 14 13 15 17 20 30 43 36 43 51 52 53 53 54
80 80 81 81 82 82 80 84 84 84 83 80 77 67 27 15 14 17 36 37 48 31 28 29 24 33 18 14 15 15 16 17 13 14 15 19 19 27 36 44 50 51 53 56 55
84 84 83 83 83 81 82 84 81 78 79 77 74 75 18 34 19 10 15 27 48 34 22 20 20 21 17 18 16 15 15 18 16 13 18 22 19 25 35 42 48 51 52 53 56
85 84 84 83 82 82 84 79 77 75 70 64 60 55 23 14 20 16 11 24 30 30 27 21 20 21 19 18 18 16 17 15 16 14 21 21 25 30 38 41 46 50 48 52 52
86 86 85 83 81 83 68 40 31 37 35 52 48 32 27 16 20 17 9 16 17 22 21 21 20 22 18 17 14 13 13 15 15 13 22 21 22 27 40 41 45 49 49 49 49
85 86 86 85 82 84 48 32 37 36 47 29 31 29 30 26 19 18 10 12 16 18 17 26 22 16 15 18 16 14 14 15 15 13 15 16 22 25 39 43 42 48 48 47 45
85 85 86 86 86 59 53 43 40 42 47 27 26 23 20 19 24 17 11 10 14 15 17 17 15 14 19 20 20 17 13 13 14 13 15 19 18 26 35 38 40 43 41 45 44
84 85 85 86 52 60 36 45 47 48 34 23 19 18 17 16 20 14 12 11 13 15 16 14 13 17 18 18 18 17 13 12 14 16 18 17 20 28 26 42 42 41 44 42 44
84 84 85 87 68 57 36 47 46 47 26 19 14 11 16 16 14 17 12 13 14 13 16 17 17 20 22 17 18 16 14 14 13 15 16 16 20 19 33 38 41 39 40 41 40
84 84 87 69 70 55 53 55 46 29 33 21 13 14 18 16 12 17 16 13 13 16 13 12 13 15 18 16 17 15 16 16 17 15 22 18 18 18 20 26 29 35 36 40 40
84 86 76 62 44 43 55 42 30 34 22 28 26 23 23 19 13 18 19 19 18 21 22 16 15 14 13 17 16 16 16 20 22 21 20 15 19 20 16 18 16 26 34 36 38
86 87 69 56 50 50 47 26 40 27 32 27 27 25 24 25 21 21 20 20 16 14 15 19 21 14 13 15 16 18 14 15 24 16 14 20 20 16 13 12 17 17 22 30 35
88 62 49 43 41 46 38 25 34 42 44 41 29 31 29 26 27 24 22 18 18 15 18 18 17 13 12 11 13 17 19 11 13 18 16 13 14 14 14 13 16 19 20 26 30
76 72 46 40 43 46 35 52 49 44 43 36 42 35 38 32 29 26 29 39 27 28 30 19 22 14 12 11 11 14 13 18 16 23 22 16 19 14 20 16 17 19 18 22 24
70 52 34 42 38 41 49 55 50 44 44 40 41 42 37 40 34 31 43 38 34 36 34 26 20 19 15 16 15 15 17 14 13 15 15 14 12 16 19 23 18 15 16 18 22
73 44 40 41 43 51 48 53 55 46 47 47 39 43 46 42 36 40 48 46 32 40 45 39 21 22 19 12 11 12 15 15 17 27 17 14 11 11 14 13 18 15 16 17 20
88 80 45 38 63 63 58 55 47 52 60 60 56 50 46 48 45 46 48 39 36 40 48 38 34 28 23 16 14 15 14 14 13 14 25 17 13 10 13 14 14 16 18 21 24
78 61 48 53 59 66 66 59 56 47 58 76 70 49 52 51 49 50 47 40 34 38 50 42 36 34 23 24 27 27 18 15 14 18 19 17 14 13 13 16 15 17 18 17 24
90 74 70 64 54 61 61 65 64 58 48 56 95 92 76 62 48 49 46 42 34 47 36 38 41 38 33 29 28 29 25 22 22 18 20 16 16 15 16 16 15 14 18 22 22
87 82 82 78 72 69 59 62 64 55 58 52 95 94 93 84 61 60 51 49 49 42 41 36 36 39 34 25 24 29 25 25 22 21 20 18 18 13 15 16 18 16 18 20 20
86 81 97 85 86 87 63 58 58 59 54 58 83 69 64 81 51 44 40 39 40 48 47 44 36 34 32 31 29 30 24 22 21 19 18 21 18 14 15 16 19 18 19 22 21
Wind_Speed
21 22 22 22 21 21 21 21 21 20 20 19 19 17 18 17 13 5 10 12 12 15 20 19 15 14 13 6 1 1 3 2 1 3 2 10 4 5 6 13 6 6 8 15 23
22 22 22 22 22 22 21 21 21 21 20 19 17 17 16 16 5 12 13 14 14 24 21 23 20 19 7 7 4 4 3 2 3 2 4 12 9 10 4 12 7 7 13 23 23
21 22 22 23 24 23 23 22 21 21 20 19 17 15 14 12 6 9 1 17 21 27 18 18 21 16 9 5 7 6 5 2 2 5 3 12 10 8 7 11 11 15 22 25 23
22 22 23 23 24 24 25 25 24 22 21 18 16 13 12 3 7 1 10 20 24 22 23 20 20 14 9 8 11 6 11 8 2 1 3 11 11 8 13 3 11 17 24 27 26
23 23 23 24 24 25 25 24 24 23 21 18 13 9 4 5 13 0 12 20 23 21 26 19 24 13 14 10 8 15 9 5 11 11 9 7 15 10 16 10 12 20 25 24 23
23 23 23 24 24 26 26 25 25 25 22 16 10 4 3 9 4 5 14 22 25 24 24 20 16 11 10 8 15 4 12 13 11 13 11 13 10 10 11 14 16 22 26 23 24
23 24 24 25 27 28 28 26 28 26 22 16 11 7 5 16 5 8 17 14 25 24 27 20 13 16 8 5 10 9 13 13 14 10 8 11 9 18 10 19 20 22 23 22 22
24 25 25 26 28 29 28 28 25 16 10 8 14 8 11 3 7 2 7 6 16 15 16 11 5 16 4 1 3 4 3 5 1 7 5 14 15 15 18 20 21 23 22 21 23
24 25 26 27 30 31 29 25 13 11 14 18 10 5 9 6 6 13 13 9 18 15 5 10 8 6 5 9 7 5 9 8 6 9 5 13 13 5 20 21 21 22 23 21 21
24 26 28 29 30 32 30 14 4 7 9 3 5 4 7 5 6 8 13 19 10 17 7 7 7 12 11 13 13 10 9 9 12 1 7 10 17 1 19 22 21 22 22 22 23
25 26 27 31 30 32 13 1 2 4 2 9 2 6 3 4 8 6 16 16 10 13 14 15 12 22 22 18 14 7 15 11 3 2 6 12 13 9 15 18 20 19 21 22 24
26 27 27 30 32 20 6 6 7 6 15 15 22 19 19 4 3 12 21 16 14 17 16 9 25 20 13 15 17 16 17 16 8 10 5 5 10 9 15 21 23 25 24 24 22
26 27 28 29 31 4 5 7 8 7 7 10 9 8 9 13 7 16 26 16 23 22 27 25 6 20 19 15 18 20 22 19 14 3 4 7 13 7 11 16 17 21 20 20 23
25 26 28 32 4 8 3 7 10 2 6 7 6 6 8 9 11 14 23 17 12 26 22 22 19 23 23 26 22 23 17 16 15 8 12 5 11 7 11 16 18 19 21 22 24
26 25 26 12 6 6 9 12 12 4 8 5 5 5 9 15 2 13 22 12 20 19 17 18 24 18 25 25 20 16 11 16 16 14 11 13 9 11 4 12 19 21 23 24 24
27 26 26 0 2 7 11 14 3 5 11 1 4 3 6 12 2 4 15 12 6 11 19 19 6 24 15 19 23 13 7 9 6 9 16 19 14 16 15 15 14 18 22 23 24
27 27 11 4 6 15 10 4 5 8 7 5 5 6 5 2 7 7 18 26 18 17 17 20 14 12 18 18 19 21 16 8 10 14 14 12 15 20 9 18 20 18 23 24 25
29 24 7 3 9 11 5 4 9 4 6 9 9 13 3 4 2 2 16 24 21 19 15 19 19 20 19 21 14 26 22 9 15 13 11 8 16 13 15 19 19 17 18 20 22
23 7 4 4 13 5 4 5 5 9 10 14 14 4 1 3 5 5 7 20 20 15 13 19 19 9 17 13 22 15 26 21 8 2 5 13 13 10 8 18 17 18 15 18 22
8 5 6 12 10 3 3 3 4 13 15 9 5 7 6 8 3 3 2 8 6 0 6 6 7 13 24 18 24 14 18 12 14 15 13 8 9 13 18 19 17 18 17 19 20
3 5 9 18 3 3 3 6 7 10 15 9 9 8 7 6 6 5 7 9 9 7 5 2 5 4 16 22 22 12 19 12 12 10 9 7 10 8 15 17 20 22 21 20 19
3 3 9 11 6 3 5 12 9 10 10 6 7 4 5 5 5 4 4 7 14 9 1 4 5 11 16 14 22 23 19 22 12 14 12 7 6 1 10 10 13 16 16 13 15
4 3 4 6 6 7 9 7 7 13 11 8 6 9 6 5 3 5 5 7 12 12 7 5 4 12 12 11 10 21 23 22 21 11 17 12 6 10 4 3 7 11 13 12 12
3 5 3 4 1 6 10 7 9 10 5 6 8 7 8 2 2 3 5 5 10 9 9 5 1 10 13 8 4 6 11 24 24 18 17 20 16 9 6 6 7 9 11 10 10
3 2 2 5 4 9 10 6 12 9 8 8 2 9 10 5 4 4 7 6 4 12 7 5 3 5 5 7 6 9 10 10 18 23 23 19 27 20 17 17 11 9 9 9 11
3 3 1 6 8 8 5 3 9 10 8 8 5 10 9 4 6 7 9 4 3 6 7 7 1 4 8 9 9 11 13 14 15 17 16 21 26 10 7 14 18 19 16 15 13
1 2 2 4 5 4 3 6 11 14 7 5 8 15 10 12 11 13 12 13 13 9 5 6 4 3 5 8 13 16 21 16 14 13 14 22 17 13 16 16 14 18 18 16 15
Wind_Direction
355 352 349 346 342 339 336 332 329 327 325 324 325 329 328 327 319 166 235 219 181 161 147 146 161 158 174 170 163 279 276 274 211 196 132 161 148 126 101 140 167 178 151 142 154
351 349 346 341 337 334 332 328 324 321 319 318 320 324 327 330 304 256 236 203 172 154 157 164 162 160 174 183 180 222 259 218 202 216 301 176 161 144 147 159 173 111 122 139 156
347 345 342 338 334 330 327 323 318 315 313 313 315 319 322 327 283 251 152 190 172 164 165 162 151 157 170 164 193 182 235 231 194 302 22 161 152 158 156 188 186 164 149 154 163
343 340 337 334 330 326 323 319 314 310 306 306 308 313 316 275 259 96 321 173 167 162 153 154 162 166 185 192 202 229 244 249 293 133 122 171 159 184 189 166 186 162 163 161 171
341 337 334 331 327 322 318 313 309 304 299 296 295 304 305 221 248 319 106 148 163 167 163 168 172 172 184 195 187 235 261 245 250 258 269 189 195 188 206 171 145 154 167 174 175
340 336 332 329 324 320 316 314 308 300 291 282 269 248 225 245 230 201 143 156 167 176 173 171 184 179 176 192 200 201 244 258 272 254 243 215 222 199 206 169 143 159 174 179 183
337 335 332 329 324 319 318 316 309 297 280 262 228 190 220 245 98 156 155 175 174 180 177 185 171 187 168 182 225 260 274 272 246 224 233 216 229 224 174 162 154 167 177 183 189
338 335 332 331 324 320 322 319 315 307 272 210 177 174 247 233 235 190 176 161 188 176 193 180 198 200 219 261 177 237 224 267 359 197 209 188 266 232 172 168 167 170 177 189 195
338 335 334 333 326 323 323 321 321 42 102 127 135 212 253 122 206 205 183 168 171 178 178 177 190 206 178 225 244 216 242 235 277 214 171 211 281 320 179 178 175 178 180 189 199
338 336 336 334 328 327 324 318 210 89 116 192 103 244 230 219 167 153 169 148 155 168 195 188 186 214 212 203 215 213 215 237 251 168 218 228 252 18 185 190 187 183 185 190 199
338 337 337 332 333 329 333 281 296 182 277 236 199 280 300 314 145 153 165 153 127 166 181 194 203 211 208 215 227 232 232 237 250 244 251 239 261 227 193 202 196 190 194 194 204
340 338 337 331 333 326 325 58 61 300 300 251 244 255 263 319 214 153 166 170 187 191 183 173 223 211 207 201 217 224 233 236 253 269 272 276 255 213 194 206 203 194 196 200 200
340 339 333 334 328 11 345 79 4 328 256 283 221 229 220 188 234 180 179 185 190 194 194 206 209 199 198 200 212 225 227 229 242 306 225 267 261 219 215 223 216 212 209 206 202
340 341 333 337 328 338 68 331 334 276 274 256 220 244 169 157 234 204 192 175 190 204 197 221 204 192 201 215 206 226 220 234 235 242 250 221 263 222 221 215 217 213 209 210 206
338 338 330 343 298 329 310 329 320 179 285 100 140 145 154 189 48 195 188 203 196 181 177 200 200 189 210 210 201 226 204 211 230 236 253 221 256 242 200 219 218 217 213 211 210
335 334 330 353 258 277 305 307 197 223 243 66 99 163 168 221 246 120 186 212 180 187 214 206 207 195 201 208 201 198 172 176 193 231 238 233 231 249 217 219 224 221 219 212 211
333 328 329 311 329 328 314 273 200 235 349 20 1 351 329 249 222 181 191 191 187 183 193 202 193 194 196 187 198 201 182 180 207 215 237 222 223 241 233 219 228 211 216 212 208
331 321 330 253 303 322 304 234 228 14 347 351 334 306 231 342 194 249 193 194 205 206 181 194 205 195 187 201 185 199 199 207 216 236 235 180 236 239 220 223 227 232 222 212 209
325 340 331 339 323 313 295 241 360 22 344 329 317 295 299 11 330 330 196 210 203 207 211 201 216 189 181 183 184 182 210 210 245 143 252 226 242 258 234 217 214 222 214 211 214
330 343 322 334 336 302 272 300 332 16 337 328 327 359 342 356 350 6 69 5 256 302 301 180 206 197 196 187 198 192 169 178 212 223 234 208 241 235 197 210 213 226 219 216 219
3 348 1 338 293 22 33 325 309 345 351 322 331 314 327 342 333 21 25 56 357 326 342 250 239 139 176 202 181 181 190 200 198 225 224 245 240 198 219 215 211 215 215 213 216
349 353 356 336 39 4 351 320 298 331 344 316 307 309 306 329 328 38 82 31 353 333 356 30 254 214 206 193 214 202 197 198 202 194 234 273 240 174 234 230 234 238 233 239 227
1 296 341 339 40 354 337 306 315 346 343 350 327 1 348 334 308 45 38 21 7 19 23 353 229 197 225 209 203 218 212 206 216 230 209 212 186 236 209 183 212 227 235 236 230
348 342 347 39 71 345 338 322 330 341 9 337 330 354 342 329 16 29 15 9 343 9 352 305 21 262 225 227 12 222 218 211 220 227 227 228 243 223 244 241 271 268 272 256 239
0 37 12 317 334 324 321 301 314 351 344 337 39 17 359 294 306 8 13 340 15 1 3 12 27 336 317 308 290 263 254 241 234 236 234 242 242 238 249 278 273 281 283 287 273
323 317 296 288 292 300 322 296 310 336 323 318 4 353 349 306 21 333 348 0 5 351 5 350 318 334 306 305 290 277 255 250 246 245 256 260 262 259 282 260 269 264 270 275 258
311 257 216 267 290 287 308 323 309 327 298 310 325 319 312 291 324 311 289 274 275 298 315 316 297 261 263 326 319 268 242 244 247 240 243 244 251 253 253 242 242 255 253 250 248